Regional Weather Roundup
Issued by NWS

Home | Current Version | Previous Version | Text Only | Print | Product List | Glossary Off
Versions: 1 2 3 4 5 6 7 8 9 10 11 12 13 14 15 16 17 18 19 20 21 22 23 24 25 26 27 28 29 30 31 32 33 34 35 36 37 38 39 40 41 42 43 44 45 46 47 48 49 50

000
ASUS43 KOAX 271710
RWRNE

WEATHER ROUNDUP FOR NEBRASKA
NATIONAL WEATHER SERVICE OMAHA NE
1200 PM CDT THU AUG 27 2015

NOTES: SATELLITE DATA IS BEING USED TO AUGMENT CLOUD COVER ABOVE
       12000 FEET.
       "FAIR" INDICATES FEW OR NO CLOUDS BELOW 12,000 FEET WITH NO
       SIGNIFICANT WEATHER AND/OR OBSTRUCTIONS TO VISIBILITY.

  * THESE STATIONS DO NOT REPORT WEATHER SUCH AS RAIN...SNOW OR FOG.

NEZ001>004-019>022-054>056-271800-
NEBRASKA PANHANDLE

CITY           SKY/WX    TMP DP  RH WIND       PRES   REMARKS
SCOTTSBLUFF    PTSUNNY   76  58  53 NW13      30.05S
ALLIANCE       PTSUNNY   75  59  57 N16       30.03S
CHADRON        PTSUNNY   76  56  49 N10       30.04R
KIMBALL        PTSUNNY   78  47  34 NW21G28   30.08S
SIDNEY         SUNNY     83  53  35 NW25G38   30.04S
$$

NEZ057>060-069>072-079>082-271800-
SOUTHWEST NEBRASKA

CITY           SKY/WX    TMP DP  RH WIND       PRES   REMARKS
NORTH PLATTE   CLOUDY    77  64  64 SE9       29.90F
IMPERIAL       MOSUNNY   84  57  39 N13       29.92F
LEXINGTON      PTSUNNY   78  69  73 E10       29.91F
MCCOOK         PTSUNNY   88  55  32 VRB5      29.89S
OGALLALA       MOSUNNY   82  55  39 NW10      29.94F
$$

NEZ005>010-023>029-035>040-094-271800-
NORTH CENTRAL NEBRASKA

CITY           SKY/WX    TMP DP  RH WIND       PRES   REMARKS
AINSWORTH      MOSUNNY   76  67  72 E5        29.94S
BROKEN BOW     PTSUNNY   79  67  66 SE14G22   29.92R
O`NEILL        CLOUDY    72  68  89 SE12      29.94F
ORD            MOSUNNY   76  67  73 SE10G20   29.91S
THEDFORD       PTSUNNY   78  67  69 N6        29.95R
$$

NEZ041-046>049-061>064-073>077-083>087-271800-
SOUTH CENTRAL NEBRASKA

CITY           SKY/WX    TMP DP  RH WIND       PRES   REMARKS
GRAND ISLAND   PTSUNNY   76  68  76 SE10      29.94F
AURORA         CLOUDY    76  70  83 SE14      29.95F
HASTINGS       PTSUNNY   77  69  76 SE14G22   29.94S
HEBRON         PTSUNNY   79  67  66 SE14G21   29.97S
HOLDREGE       PTSUNNY   83  62  48 SE9       29.91F
KEARNEY *      PTSUNNY   79  70  73 SE15      29.93R
YORK           PTSUNNY   77  68  73 SE13      29.97R
$$

NEZ011>018-030>034-042>045-271800-
NORTHEAST NEBRASKA

CITY           SKY/WX    TMP DP  RH WIND       PRES   REMARKS
NORFOLK        CLOUDY    76  66  71 SE18G26   29.97S
ALBION         CLOUDY    74  65  74 SE12G17   29.95F
BLAIR          CLOUDY    71  61  70 SE14G20   30.04F
COLUMBUS *     PTSUNNY   75  64  69 SE10G16   29.98R
FREMONT        CLOUDY    74  62  65 SE20      30.03R
TEKAMAH        CLOUDY    70  63  78 SE18G24   30.03F
WAYNE          CLOUDY    73  64  73 SE16G22   29.99F
$$

NEZ050>053-065>068-078-088>093-271800-
SOUTHEAST NEBRASKA

CITY           SKY/WX    TMP DP  RH WIND       PRES   REMARKS
LINCOLN        PTSUNNY   75  64  68 SE18      30.01F
OMAHA EPPLEY   CLOUDY    72  60  66 SE20      30.07R
BEATRICE       CLOUDY    76  66  71 SE16G23   30.00S
FALLS CITY     CLOUDY    78  66  66 SE14      30.05F
NEBRASKA CITY  PTSUNNY   74  60  61 SE12      30.05S
PLATTSMOUTH    PTSUNNY   72  61  68 SE13G21   30.06R
$$

NEZ044-045-051>053-067-271800-
OMAHA AREA

CITY           SKY/WX    TMP DP  RH WIND       PRES   REMARKS
OMAHA EPPLEY   CLOUDY    72  60  66 SE20      30.07R
BLAIR          CLOUDY    71  61  70 SE14G20   30.04F
FREMONT        CLOUDY    74  62  65 SE20      30.03R
MILLARD        PTSUNNY   74  63  69 SE14      30.04S
PLATTSMOUTH    PTSUNNY   72  61  68 SE13G21   30.06R
WAHOO          FAIR      74  64  70 SE17      30.02R
$$



USA.gov is the U.S. government's official web portal to all federal, state and local government web resources and services.